Aktion, Greece

6:56 AM EET on February 07, 2016 (GMT +0200)
Aktion Air Base

Weather History for LGPZ - August, 2013

Change the Weather History Date:

Saturday, August 24, 2013

  Actual Average Record
Temperature  
Mean Temperature 78 °F -  
Max Temperature 85 °F 78 °F 102 °F (2007)
Min Temperature 70 °F 65 °F 60 °F (2015)
Cooling Degree Days 12    
Growing Degree Days 28 (Base 50)    
Moisture  
Dew Point 69 °F    
Average Humidity 69    
Maximum Humidity 88    
Minimum Humidity 51    
Precipitation  
Precipitation 0.00 in - - ()
Sea Level Pressure  
Sea Level Pressure 29.92 in    
Wind  
Wind Speed 7 mph ()    
Max Wind Speed 16 mph    
Max Gust Speed -    
Visibility 6.2 miles    
Events      
Averages and records for this station are not official NWS values.
T = Trace of Precipitation, MM = Missing Value Source: Averaged Metar Reports

Daily Weather History Graph

Daily Weather History Graph

Search for Another Location

Airport or City:

Trip Planner

Search our weather history database for the weather conditions in past years. The results will help you decide how hot, cold, wet, or windy it might be!

Date:

Astronomy

Aug. 24, 2013 Rise Set
Actual Time 6:58 AM EEST 8:19 PM EEST
Civil Twilight 6:30 AM EEST 8:47 PM EEST
Nautical Twilight 5:57 AM EEST 9:20 PM EEST
Astronomical Twilight 5:22 AM EEST 9:55 PM EEST
Moon 10:05 PM EEST (8/24) 10:36 AM EEST (8/24)
Length of Visible Light 14h 16m
Length of Day
13h 20m
Waning Gibbous, 86% of the Moon is Illuminated
Aug 24
Waning Gibbous
Aug 28
Last Quarter
Sep 5
New
Sep 12
First Quarter
Sep 19
Full

Hourly Weather History & Observations

Time (EEST) Temp. Heat Index Dew Point Humidity Pressure Visibility Wind Dir Wind Speed Gust Speed Precip Events Conditions
12:50 AM 77.0 °F - 71.6 °F 83% 29.92 in - WSW 5.8 mph - N/A   Clear
1:50 AM 78.8 °F - 71.6 °F 78% 29.95 in - West 8.1 mph - N/A   Clear
2:50 AM 78.8 °F - 71.6 °F 78% 29.92 in - SW 9.2 mph - N/A   Clear
3:00 AM 78 °F - 72 °F 77% 29.94 in 6 mi SW 9.2 mph - -   Partly Cloudy
4:50 AM 73.4 °F - 68.0 °F 83% 29.92 in - Calm Calm - N/A   Clear
5:50 AM 71.6 °F - 66.2 °F 83% 29.92 in - Calm Calm - N/A   Clear
6:20 AM 69.8 °F - 66.2 °F 88% 29.92 in - Calm Calm - N/A   Clear
6:50 AM 71.6 °F - 68.0 °F 88% 29.92 in 6.2 mi Calm Calm - N/A   Partly Cloudy
7:20 AM 71.6 °F - 68.0 °F 88% 29.92 in 6.2 mi Calm Calm - N/A   Partly Cloudy
7:50 AM 73.4 °F - 68.0 °F 83% 29.92 in 6.2 mi Variable 3.5 mph - N/A   Partly Cloudy
8:20 AM 75.2 °F - 69.8 °F 83% 29.92 in 6.2 mi NE 4.6 mph - N/A   Partly Cloudy
8:50 AM 77.0 °F - 69.8 °F 78% 29.95 in 6.2 mi NE 4.6 mph - N/A   Partly Cloudy
9:00 AM 78 °F - 69 °F 67% 29.95 in 6 mi NE 4.6 mph - -   Scattered Clouds
9:20 AM 78.8 °F - 69.8 °F 74% 29.95 in 6.2 mi ENE 3.5 mph - N/A   Partly Cloudy
9:50 AM 80.6 °F 83.9 °F 69.8 °F 70% 29.95 in 6.2 mi ENE 4.6 mph - N/A   Partly Cloudy
10:50 AM 82.4 °F 86.3 °F 69.8 °F 66% 29.95 in 6.2 mi NE 3.5 mph - N/A   Partly Cloudy
11:20 AM 84.2 °F 88.4 °F 69.8 °F 62% 29.95 in - WNW 8.1 mph - N/A   Clear
11:50 AM 84.2 °F 88.4 °F 69.8 °F 62% 29.95 in - WNW 8.1 mph - N/A   Clear
12:20 PM 84.2 °F 88.4 °F 69.8 °F 62% 29.95 in - WNW 9.2 mph - N/A   Clear
12:50 PM 84.2 °F 88.4 °F 69.8 °F 62% 29.95 in 6.2 mi WNW 11.5 mph - N/A   Partly Cloudy
1:20 PM 84.2 °F 88.4 °F 69.8 °F 62% 29.95 in 6.2 mi WNW 12.7 mph - N/A   Partly Cloudy
1:50 PM 84.2 °F 88.4 °F 69.8 °F 62% 29.92 in 6.2 mi WNW 13.8 mph - N/A   Partly Cloudy
2:20 PM 84.2 °F 88.4 °F 69.8 °F 62% 29.92 in 6.2 mi WNW 12.7 mph - N/A   Partly Cloudy
2:50 PM 84.2 °F 88.4 °F 69.8 °F 62% 29.92 in 6.2 mi WNW 15.0 mph - N/A   Partly Cloudy
3:00 PM 84 °F - 70 °F 54% 29.94 in 6 mi WNW 15.0 mph - -   Scattered Clouds
3:20 PM 84.2 °F 88.4 °F 69.8 °F 62% 29.92 in 6.2 mi West 15.0 mph - N/A   Partly Cloudy
3:50 PM 86.0 °F 90.4 °F 69.8 °F 58% 29.92 in 6.2 mi West 15.0 mph - N/A   Partly Cloudy
4:20 PM 84.2 °F 88.4 °F 69.8 °F 62% 29.92 in 6.2 mi West 16.1 mph - N/A   Partly Cloudy
4:50 PM 84.2 °F 87.3 °F 68.0 °F 58% 29.92 in 6.2 mi WNW 16.1 mph - N/A   Partly Cloudy
5:20 PM 84.2 °F 86.6 °F 66.2 °F 55% 29.89 in - WNW 16.1 mph - N/A   Clear
5:50 PM 84.2 °F 85.6 °F 64.4 °F 51% 29.89 in - West 15.0 mph - N/A   Clear
6:20 PM 82.4 °F 83.9 °F 64.4 °F 54% 29.89 in - West 15.0 mph - N/A   Clear
6:50 PM 82.4 °F 84.6 °F 66.2 °F 58% 29.89 in - West 13.8 mph - N/A   Clear
7:20 PM 80.6 °F 83.2 °F 68.0 °F 65% 29.89 in - West 15.0 mph - N/A   Clear
7:50 PM 80.6 °F 83.2 °F 68.0 °F 65% 29.89 in - West 13.8 mph - N/A   Clear
8:20 PM 78.8 °F - 68.0 °F 69% 29.89 in - West 12.7 mph - N/A   Clear
8:50 PM 78.8 °F - 69.8 °F 74% 29.89 in - West 13.8 mph - N/A   Clear
9:00 PM 79 °F - 69 °F 65% 29.89 in 6 mi West 13.8 mph - -  
9:50 PM 78.8 °F - 69.8 °F 74% 29.89 in - West 6.9 mph - N/A   Clear
10:50 PM 78.8 °F - 69.8 °F 74% 29.92 in - West 6.9 mph - N/A   Clear
11:50 PM 77.0 °F - 69.8 °F 78% 29.92 in 6.2 mi West 6.9 mph - N/A   Partly Cloudy